MST,Max TemperatureF,Mean TemperatureF,Min TemperatureF,Max Dew PointF,MeanDew PointF,Min DewpointF,Max Humidity, Mean Humidity, Min Humidity, Max Sea Level PressureIn, Mean Sea Level PressureIn, Min Sea Level PressureIn, Max VisibilityMiles, Mean VisibilityMiles, Min VisibilityMiles, Max Wind SpeedMPH, Mean Wind SpeedMPH, Max Gust SpeedMPH,PrecipitationIn, CloudCover, Events, WindDirDegrees
2011-11-1,58,49,39,35,32,30,76,57,36,30.14,29.97,29.83,10,9,2,18,13,27,0.00,2,,14
2011-11-2,41,32,22,32,28,19,96,72,48,30.51,30.33,30.14,10,8,1,32,18,41,0.03,5,Snow,355
2011-11-3,48,34,20,25,19,15,84,55,26,30.49,30.33,30.09,10,10,10,20,11,25,0.00,0,,199
2011-11-4,53,39,24,32,26,19,81,62,42,30.12,29.94,29.71,10,10,10,17,11,24,0.00,0,,144
2011-11-5,62,50,38,41,32,28,89,59,29,29.66,29.44,29.25,10,10,4,41,22,55,0.10,2,Rain,178
2011-11-6,52,39,26,33,23,19,85,58,30,30.12,29.92,29.62,10,10,10,20,9,25,0.00,0,,287
2011-11-7,50,37,23,34,29,20,81,59,36,30.19,30.12,30.04,10,10,10,21,6,24,T,6,Rain,102
2011-11-8,49,41,32,33,29,24,82,62,42,30.32,30.17,30.07,10,10,10,18,10,24,0.00,4,,5
2011-11-9,50,38,25,24,20,16,78,52,26,30.48,30.43,30.33,10,10,10,24,12,31,0.00,1,,310
2011-11-10,60,40,19,24,17,10,84,49,14,30.41,30.20,29.96,10,10,10,15,7,21,0.00,0,,266
2011-11-11,66,49,31,21,15,9,58,35,11,29.97,29.83,29.62,10,10,6,22,10,26,0.00,0,,255
2011-11-12,70,49,28,29,23,15,69,41,12,29.61,29.48,29.37,10,10,8,32,9,44,0.00,1,,284
2011-11-13,52,44,36,34,21,2,64,39,14,29.65,29.56,29.38,10,10,5,40,11,55,T,2,,294
2011-11-14,61,44,27,23,17,9,69,42,14,29.79,29.68,29.58,10,10,10,25,13,32,0.00,0,,260
2011-11-15,51,36,21,24,17,11,74,49,23,30.16,29.92,29.68,10,10,10,28,12,35,0.00,1,,345
2011-11-16,34,25,15,25,21,10,92,71,49,30.45,30.29,30.14,10,6,0,20,7,24,0.12,6,Fog-Snow,317
2011-11-17,56,36,16,28,19,11,88,59,30,30.35,30.04,29.73,10,10,10,18,9,23,0.00,0,,208
2011-11-18,69,46,23,28,23,16,81,47,12,29.71,29.60,29.47,10,10,10,18,7,22,0.00,0,,198
2011-11-19,32,25,18,27,22,15,92,82,72,30.24,29.86,29.46,10,10,3,26,11,35,T,5,Rain,25
2011-11-20,36,25,13,22,17,10,92,74,56,30.34,30.22,30.11,10,7,1,16,7,21,0.00,2,,159
2011-11-21,44,30,16,27,22,15,96,75,53,30.22,30.14,30.05,10,10,9,14,4,18,0.00,0,,168
2011-11-22,58,40,21,28,22,18,88,56,23,30.20,30.13,30.03,10,10,10,26,9,33,0.00,0,,294
2011-11-23,67,49,31,28,25,23,66,43,20,30.26,30.13,29.97,10,10,10,17,9,22,0.00,0,,228
2011-11-24,69,46,22,26,23,19,81,49,16,29.97,29.88,29.76,10,10,10,13,4,15,0.00,0,,255
2011-11-25,59,45,31,31,25,21,78,52,26,29.98,29.77,29.71,10,10,10,32,9,39,0.00,2,,290
2011-11-26,42,32,22,34,23,13,69,55,40,30.55,30.31,29.99,10,8,2,41,23,51,0.05,4,Rain-Snow,326
2011-11-27,55,37,19,24,17,11,73,49,24,30.51,30.34,30.14,10,10,10,17,9,22,0.00,0,,295
2011-11-28,66,47,27,27,22,17,70,44,18,30.37,30.18,30.04,10,10,10,31,13,40,0.00,0,,327
2011-11-29,51,36,20,27,22,18,88,60,32,30.46,30.33,30.13,10,10,10,15,6,20,0.00,1,,212
2011-11-30,58,40,21,28,25,19,88,63,30,30.09,29.93,29.77,10,10,10,8,3,9,0.00,0,,358